Regional Weather Roundup
Issued by NWS

Home | Current Version | Previous Version | Text Only | Print | Product List | Glossary On
Versions: 1 2 3 4 5 6 7 8 9 10 11 12 13 14 15 16 17 18 19 20 21 22 23 24 25 26 27 28 29 30 31 32 33 34 35 36 37 38 39 40 41 42 43 44 45 46 47 48 49 50
341
ASUS43 KMKX 131100
RWRWI

WISCONSIN REGIONAL WEATHER ROUNDUP
NATIONAL WEATHER SERVICE MILWAUKEE/SULLIVAN WI
500 AM CST SAT FEB 13 2016

NOTE: "FAIR" INDICATES FEW OR NO CLOUDS BELOW 12,000 FEET WITH NO
SIGNIFICANT WEATHER AND/OR OBSTRUCTIONS TO VISIBILITY.

WIZ001-002-006>008-014>016-023>028-131200-
NORTHWEST WISCONSIN

CITY           SKY/WX    TMP DP  RH WIND       PRES   REMARKS
SUPERIOR ARPT  CLOUDY   -10 -18  68 W7        30.64S WCI -26
ASHLAND        CLOUDY    -4  -9  79 NW6       30.57S HAZE    WCI -16
HAYWARD        CLOUDY   -14 -21  71 SW3       30.55R
SIREN          PTCLDY   -13 -19  75 CALM      30.61S
CUMBERLAND     PTCLDY    -9 -20  59 NW5       30.56S WCI -21
RICE LAKE      PTCLDY   -10 -18  65 CALM      30.60R
CHETEK         PTCLDY    -9 -18  66 CALM      30.59R
LADYSMITH      CLOUDY   -10 -18  66 W5        30.55R WCI -22
EAU CLAIRE     PTCLDY    -9 -19  61 CALM      30.60S
MENOMONIE      PTCLDY    -6 -17  57 W6        30.61S WCI -18
NEW RICHMOND   CLOUDY    -8 -17  64 N3        30.61S
OSCEOLA        CLOUDY    -6 -15  65 NW5       30.65S WCI -17
$$

WIZ003>005-009-010-017-018-131200-
NORTH CENTRAL WISCONSIN

CITY           SKY/WX    TMP DP  RH WIND       PRES   REMARKS
MANITOWISH WTR PTCLDY    -9 -14  80 W7        30.41R WCI -24
ARBOR VITAE    CLOUDY    -6 -11  79 NW6       30.41R WCI -19
WOODRUFF       CLOUDY    -6 -11  79 NW6       30.41R WCI -19
RHINELANDER    CLOUDY    -9 -15  75 W12       30.41R WCI -28
EAGLE RIVER    CLEAR     -8 -14  74 W8        30.37S WCI -23
LAND O LAKES   CLOUDY    -2  -7  79 NW7       30.37S WCI -15
PHILLIPS       CLOUDY   -13 -18  81 CALM      30.47S
TOMAHAWK       CLOUDY   -10 -15  78 W7        30.45R WCI -25
MEDFORD        CLOUDY   -10 -17  71 NW6       30.47R WCI -24
MERRILL        CLOUDY    -8 -15  71 NW5       30.47S WCI -19
$$

WIZ029-030-035-036-043>047-131200-
CENTRAL WISCONSIN

CITY           SKY/WX    TMP DP  RH WIND       PRES   REMARKS
WAUSAU         CLOUDY    -6 -14  68 NW8       30.48R WCI -21
MOSINEE        NOT AVBL
MARSHFIELD     CLOUDY    -8 -19  58 NW13      30.50R WCI -28
STEVENS POINT  CLOUDY    -8 -16  66 NW3       30.51R
WAUPACA        PTCLDY    -1 -14  54 W6        30.52S WCI -13
WAUTOMA        NOT AVBL
WISC RAPIDS    CLOUDY    -6 -18  56 NW9       30.55R WCI -23
CAMP DOUGLAS   NOT AVBL
$$

WIZ011>013-019>022-031-037>040-048>050-131200-
NORTHEAST WISCONSIN

CITY           SKY/WX    TMP DP  RH WIND       PRES   REMARKS
ANTIGO         CLOUDY    -9 -14  79 NW13      30.41S WCI -30
SHAWANO        PTCLDY    -2 -12  62 W6        30.50S WCI -14
OCONTO         CLEAR     -5 -12  70 W6        30.50R WCI -17
STURGEON BAY   CLEAR     -2 -11  65 W14       30.47S WCI -21
GREEN BAY      PTCLDY    -4 -13  65 NW12      30.50S WCI -22
MANITOWOC      NOT AVBL
APPLETON       NOT AVBL
CLINTONVILLE   CLEAR     -2 -13  60 NW10      30.51R WCI -19
OSHKOSH        PTCLDY    -4 -15  59 W6        30.52R WCI -16
$$

WIZ032>034-041-042-053>061-131200-
SOUTHWEST WISCONSIN

CITY           SKY/WX    TMP DP  RH WIND       PRES   REMARKS
LA CROSSE      CLOUDY    -4 -16  56 N3        30.63S
SPARTA         MOCLDY    -4 -15  59 NW5       30.60S WCI -15
VIROQUA        CLOUDY    -6 -17  59 N7        30.53S WCI -20
BOSCOBEL       CLOUDY    -7 -14  71 CALM      30.62S
PRAIRIE DU CHI CLOUDY    -1 -13  56 CALM      30.62S
PLATTEVILLE    CLOUDY    -2 -11  65 NW6       30.56S WCI -14
$$

WIZ056-057-062-063-064-067-068-131200-
SOUTH CENTRAL WISCONSIN

CITY           SKY/WX    TMP DP  RH WIND       PRES   REMARKS
REEDSBURG      PTCLDY    -4 -16  57 W3        30.57R
BARABOO/DELLS  PTCLDY    -3 -17  51 NW6       30.55R WCI -15
LONE ROCK      NOT AVBL
MINERAL POINT  CLOUDY     0 -13  55 NW7       30.53S WCI -13
MADISON        CLEAR     -2 -15  54 NW6       30.55R WCI -14
MIDDLETON      CLEAR      0 -13  55 NW6       30.55S WCI -12
WATERTOWN      CLEAR     -1 -12  58 NW9       30.53R WCI -16
MONROE         CLEAR      1 -11  55 NW5       30.53R WCI  -8
JANESVILLE     CLEAR      3  -9  55 NW8       30.55R WCI -10
$$

WIZ051-052-058>065-066-070>072-131200-
SOUTHEAST WISCONSIN

CITY           SKY/WX    TMP DP  RH WIND       PRES   REMARKS
MILWAUKEE      CLEAR      2 -13  49 NW10      30.52R WCI -14
WAUKESHA       CLEAR      0 -13  55 NW9       30.52R WCI -16
MILWAUKEE/TIMM PTCLDY     1 -15  46 NW12      30.52R WCI -15
RACINE         CLEAR      2 -13  49 NW10G17   30.53R WCI -14
BURLINGTON     CLEAR     -1 -13  56 NW10      30.52S WCI -17
KENOSHA        CLEAR      2 -11  54 NW12      30.52R WCI -15
FOND DU LAC    PTCLDY    -2 -14  56 NW15      30.51S WCI -22
SHEBOYGAN      CLEAR     -1 -13  56 NW13      30.49S WCI -19
WEST BEND      CLEAR      0 -15  50 CALM      30.49S
JUNEAU         CLEAR     -3 -14  59 W8        30.53R WCI -18
$$

LSZ147-162-131200-
LAKE SUPERIOR

STATION/POSITION TIME  TEMP    WIND        PRES    WAVE
                       AIR SEA DIR/SP/G            HT/PER
                 (UTC) (F)     (DEG/KT/KT) (MB)    (FT/S)
DEVILS ISLAND    1000    0     340/ 17/ 21 1037.0F
SAXON HARBOR     1040    0                 1034.5R
$$

LMZ867-665-643>646-131200-
LAKE MICHIGAN

STATION/POSITION TIME  TEMP    WIND        PRES    WAVE
                       AIR SEA DIR/SP/G            HT/PER
                 (UTC) (F)     (DEG/KT/KT) (MB)    (FT/S)
CHAMBERS ISLAND  1000    0     280/  7/ 15 1030.5R
SISTER BAY       0834    1     320/ 20/ 23   N/A
ALGOMA LAKESHORE 0911          310/  7/ 11   N/A
KEWAUNEE LAKESHO 1000   -1     290/  9/ 12 1030.8R
SHEBOYGAN LAKESH 1000    1     290/ 13/ 15 1034.4R
PORT WASHINGTON  1000    1     300/ 10/ 13 1034.2R
MILWAUKEE LAKESH 1010    3     310/ 11/ 14   N/A
KENOSHA   LAKESH 1000    4     310/ 11/ 17 1032.8S
$$

TC  - TEMPERATURE IN CELSIUS
VSB - VISIBILITY IN STATUTE MILES
WCI - WIND CHILL INDEX
HX  - HEAT INDEX





USA.gov is the U.S. government's official web portal to all federal, state and local government web resources and services.